sat.trackr.live / text

‹ back to catalog

STARLINK-35763

NORAD 67089 · 2025-298Q

PAYLOAD ACTIVE UNKNOWN

§ Identity

Operator
Country
US
Launch date
2025-12-14
Launch site
AFWTR
Launch vehicle
Mass (kg)
RCS (m²)

Purposes: comms

External: N2YO · Heavens-Above · Gunter

§ Orbital elements

Epoch: 2026-09-19T08:51:25.215840Z

Period
96.11 min
Inclination
69.9998°
Eccentricity
0.0003550
Mean motion
14.98331706 rev/d
Perigee alt
569.6 km
Apogee alt
574.5 km
Semi-major
6,950.2 km
B*
1.9103e-5
RAAN
246.3225°
Arg perigee
266.7782°
Mean anomaly
93.2971°
Rev number
4,222

§ Raw data

STARLINK-357631 67089U 25298Q   26262.36904185  .00000135  00000+0  19103-4 0  99962 67089  69.9998 246.3225 0003550 266.7782  93.2971 14.98331706 42220

JSON: /api/v1/satellites/67089 · /tle

For live sub-satellite position, see the globe view (requires WebGL).

§ Visibility from observer

Set your observer location to see the next 7 days of passes ≥ 10°. The values pass through the URL so the page stays shareable.

No JS? Fill the form by hand. The geolocation button needs JavaScript.